Springfield, VT

10:46 PM EDT on May 25, 2018 (GMT -0400)
Hartness State

Weather History for KVSF - March, 2013

Change the Weather History Date:

Saturday, March 2, 2013

  Actual Average Record
Temperature  
Mean Temperature 31 °F 27 °F  
Max Temperature 35 °F 37 °F 52 °F (1997)
Min Temperature 27 °F 17 °F 0 °F (2001)
Degree Days  
Heating Degree Days 34 38  
Month to date heating degree days 65 76  
Since 1 July heating degree days 4917 5521  
Cooling Degree Days 0 0  
Month to date cooling degree days 0 0  
Year to date cooling degree days 0 0  
Moisture  
Dew Point 21 °F    
Average Humidity 70    
Maximum Humidity 81    
Minimum Humidity 58    
Precipitation  
Precipitation T in 0.07 in 1.07 in (2007)
Month to date precipitation T 0.14  
Year to date precipitation 3.11 5.75  
Sea Level Pressure  
Sea Level Pressure 29.71 in    
Wind  
Wind Speed 6 mph (WNW)    
Max Wind Speed 14 mph    
Max Gust Speed 24 mph    
Visibility 10 miles    
Events Snow    
T = Trace of Precipitation, MM = Missing Value Source: NWS Daily Summary

Daily Weather History Graph

Daily Weather History Graph

Search for Another Location

Airport or City:

Astronomy

Mar. 02, 2013 Rise Set
Actual Time 6:24 AM EST 5:40 PM EST
Civil Twilight 5:55 AM EST 6:09 PM EST
Nautical Twilight 5:22 AM EST 6:42 PM EST
Astronomical Twilight 4:49 AM EST 7:15 PM EST
Moon 11:28 PM EST (3/2) 8:40 AM EST (3/2)
Length of Visible Light 12h 13m
Length of Day
11h 16m
Waning Gibbous, 74% of the Moon is Illuminated
Mar 2
Waning Gibbous
Mar 4
Last Quarter
Mar 11
New
Mar 19
First Quarter
Mar 27
Full

Hourly Weather History & Observations

Time (EST) Temp. Windchill Dew Point Humidity Pressure Visibility Wind Dir Wind Speed Gust Speed Precip Events Conditions
12:54 AM 33.1 °F 28.7 °F 21.0 °F 61% 29.72 in 10.0 mi NNW 4.6 mph - N/A   Overcast
1:21 AM 32.0 °F 27.5 °F 21.2 °F 64% 29.70 in 10.0 mi NW 4.6 mph - N/A   Overcast
1:37 AM 32.0 °F - 21.2 °F 64% 29.70 in 10.0 mi Calm Calm - N/A   Overcast
1:54 AM 32.0 °F 28.7 °F 21.0 °F 64% 29.72 in 10.0 mi NW 3.5 mph - N/A   Overcast
2:54 AM 30.9 °F 26.2 °F 21.9 °F 69% 29.71 in 10.0 mi West 4.6 mph - N/A   Overcast
3:54 AM 30.9 °F 26.2 °F 21.9 °F 69% 29.72 in 10.0 mi WNW 4.6 mph - N/A   Overcast
4:54 AM 30.9 °F 27.5 °F 21.9 °F 69% 29.71 in 10.0 mi West 3.5 mph - N/A   Overcast
5:54 AM 30.9 °F 25.2 °F 21.9 °F 69% 29.71 in 10.0 mi West 5.8 mph - N/A   Overcast
6:54 AM 32.0 °F - 21.0 °F 64% 29.71 in 10.0 mi Calm Calm - N/A   Overcast
7:54 AM 32.0 °F 26.4 °F 21.0 °F 64% 29.72 in 10.0 mi WNW 5.8 mph - N/A   Mostly Cloudy
8:54 AM 34.0 °F 28.0 °F 21.0 °F 59% 29.72 in 10.0 mi NW 6.9 mph - N/A   Overcast
9:54 AM 34.0 °F 26.6 °F 21.9 °F 61% 29.71 in 10.0 mi West 9.2 mph - N/A   Overcast
10:23 AM 35.6 °F - 23.0 °F 60% 29.69 in 10.0 mi Calm Calm - N/A   Overcast
10:54 AM 33.1 °F 24.9 °F 24.1 °F 70% 29.72 in 8.0 mi West 10.4 mph - 0.00 in Snow Light Snow
11:26 AM 33.8 °F 27.7 °F 23.0 °F 65% 29.69 in 10.0 mi WNW 6.9 mph - 0.00 in   Overcast
11:54 AM 35.1 °F 29.3 °F 23.0 °F 61% 29.70 in 10.0 mi NW 6.9 mph - 0.00 in   Overcast
12:54 PM 34.0 °F 27.2 °F 23.0 °F 64% 29.69 in 10.0 mi West 8.1 mph - N/A   Overcast
1:54 PM 34.0 °F 28.8 °F 21.9 °F 61% 29.68 in 10.0 mi WNW 5.8 mph - N/A   Overcast
2:54 PM 34.0 °F 26.0 °F 21.9 °F 61% 29.68 in 10.0 mi WNW 10.4 mph - N/A   Overcast
3:54 PM 33.1 °F 25.5 °F 21.9 °F 64% 29.68 in 10.0 mi WNW 9.2 mph - N/A   Overcast
4:54 PM 32.0 °F 26.4 °F 21.9 °F 66% 29.70 in 9.0 mi WNW 5.8 mph - N/A   Overcast
5:01 PM 32.0 °F 26.4 °F 21.2 °F 64% 29.68 in 9.0 mi WNW 5.8 mph - N/A   Overcast
5:54 PM 30.9 °F 25.2 °F 21.9 °F 69% 29.71 in 8.0 mi WNW 5.8 mph - 0.00 in   Overcast
6:54 PM 30.9 °F 26.2 °F 21.0 °F 67% 29.73 in 10.0 mi NNE 4.6 mph - N/A   Overcast
7:22 PM 30.2 °F 24.3 °F 17.6 °F 60% 29.70 in 10.0 mi Variable 5.8 mph - N/A   Overcast
7:54 PM 30.0 °F 21.7 °F 18.0 °F 61% 29.72 in 10.0 mi North 9.2 mph 17.3 mph N/A   Mostly Cloudy
8:54 PM 30.0 °F 24.1 °F 18.0 °F 61% 29.73 in 10.0 mi North 5.8 mph - N/A   Scattered Clouds
9:54 PM 28.9 °F - 19.0 °F 67% 29.73 in 10.0 mi Calm Calm - N/A   Mostly Cloudy
10:32 PM 28.4 °F - 21.2 °F 74% 29.70 in 6.0 mi Calm Calm - 0.00 in Snow Light Snow
10:54 PM 27.0 °F - 21.9 °F 81% 29.72 in 7.0 mi Calm Calm - 0.00 in   Overcast
11:54 PM 27.0 °F 21.6 °F 19.0 °F 72% 29.71 in 10.0 mi WNW 4.6 mph - N/A   Overcast